Temp
63 63 62 63 63 64 64 65 64 64 64 64 64 64 63 63 64 69 65 67 67 68 67 73 76 77 77 72 74 73 59 57 63 64 65 70 67 71 72 69 70 71 69 72 74
62 63 63 62 61 63 63 64 64 64 64 64 64 63 63 63 64 63 68 68 68 67 69 70 68 71 66 68 69 63 57 62 71 70 68 70 70 69 68 68 67 67 69 72 70
62 62 63 63 62 61 62 62 63 63 63 63 63 63 62 63 60 64 67 67 67 67 69 70 70 69 63 66 66 64 58 67 70 68 70 72 70 73 67 64 70 67 66 69 67
60 61 61 62 62 62 63 62 63 63 63 63 62 62 62 63 49 66 66 67 67 69 69 68 67 62 60 60 68 58 67 67 68 66 68 68 71 66 68 64 73 73 72 69 67
59 60 61 61 62 61 61 61 61 63 62 62 62 62 61 55 58 70 67 69 71 70 67 65 62 62 58 63 64 59 63 66 66 65 66 68 65 64 66 71 73 75 73 70 70
59 59 59 60 61 62 61 60 60 60 62 62 62 62 57 47 66 70 69 69 70 67 66 67 65 67 61 62 59 63 65 64 64 64 64 62 62 64 67 72 72 72 70 71 72
59 59 59 59 60 61 61 60 60 59 60 63 63 62 56 55 69 68 67 66 67 67 63 67 67 62 63 57 63 62 56 60 61 62 61 61 57 59 66 67 69 70 69 72 73
59 59 59 59 60 60 61 60 59 59 58 60 62 61 51 67 69 67 68 65 69 69 66 67 67 63 60 62 59 54 54 47 60 62 59 57 47 62 68 66 65 67 67 70 72
58 58 58 59 59 59 60 60 59 61 59 58 55 55 52 64 61 66 68 63 64 66 66 69 64 59 58 51 47 49 42 47 51 60 58 55 49 61 63 61 59 61 66 68 69
57 58 58 58 59 59 59 60 59 59 56 56 55 47 55 55 61 65 67 66 61 60 58 59 56 50 51 47 39 43 42 48 48 52 52 50 51 57 60 59 58 59 62 63 65
57 58 58 58 59 59 58 55 50 48 50 47 49 50 56 60 64 61 65 62 60 56 48 53 46 42 49 53 54 49 48 47 50 52 48 48 50 54 59 58 57 59 60 62 64
57 58 58 58 59 59 56 50 52 54 44 50 51 50 59 61 52 58 65 54 52 45 51 47 41 53 57 56 53 49 46 44 49 53 47 46 47 52 56 56 57 58 60 61 62
57 57 57 57 58 56 53 53 56 57 45 45 50 51 54 56 54 52 58 55 50 46 46 44 49 55 52 51 50 48 46 47 46 49 49 44 42 47 53 56 59 61 61 61 61
57 56 57 57 52 55 51 59 57 55 36 40 43 50 54 55 49 60 61 56 51 46 47 46 53 50 46 47 50 44 53 52 48 42 34 44 30 44 51 52 55 56 55 57 58
56 56 57 57 54 50 57 60 54 51 24 44 44 61 55 50 51 52 61 55 47 47 47 43 45 45 44 47 52 46 50 48 46 40 37 37 32 41 46 48 52 53 54 56 56
56 56 56 54 52 56 59 57 49 30 22 36 43 43 43 48 50 52 51 55 55 49 48 46 51 49 49 52 52 52 47 46 44 39 24 38 37 37 43 48 49 52 53 55 54
55 55 54 57 48 57 56 48 30 24 37 33 37 42 43 42 43 45 43 42 40 34 35 43 43 48 50 45 48 47 41 27 25 25 23 40 36 42 49 50 52 52 53 53 55
55 54 53 56 57 55 50 35 24 32 32 41 42 40 37 41 42 43 41 37 45 44 38 32 29 42 48 45 41 42 42 30 19 22 27 36 30 40 50 53 55 55 52 54 54
54 50 49 53 56 51 40 27 28 32 38 36 39 33 34 40 41 41 40 40 43 46 37 36 36 47 48 50 49 41 35 44 34 25 23 32 39 48 51 51 51 49 52 51 54
48 46 47 55 54 46 33 30 32 41 40 39 32 38 31 35 37 36 38 44 44 48 49 43 32 43 45 47 47 44 48 34 32 19 19 30 32 36 44 47 51 49 49 51 52
45 37 44 55 50 38 27 29 32 45 44 35 33 34 38 36 38 37 37 44 48 47 49 44 39 34 42 39 38 39 38 41 40 32 26 25 30 45 47 48 48 49 50 49 48
42 31 48 51 34 32 28 30 39 41 41 37 36 34 33 36 35 38 37 43 51 50 41 44 39 29 35 41 45 46 41 42 30 29 31 31 30 48 49 49 51 50 52 49 50
36 35 46 47 28 29 30 29 33 37 38 35 34 37 36 34 32 37 41 48 49 47 42 44 34 26 29 36 40 38 42 44 43 37 29 25 31 50 50 48 50 50 51 53 53
34 29 34 39 38 34 30 28 26 39 38 41 39 41 39 33 36 34 40 42 46 47 47 48 36 33 28 33 39 33 39 43 41 32 32 33 36 43 46 48 50 51 50 52 52
34 32 34 29 31 34 36 33 29 26 34 38 38 38 36 29 36 35 41 40 41 46 44 44 29 33 39 38 39 36 37 39 38 39 32 38 38 45 47 48 48 51 53 52 53
32 32 35 33 37 33 36 31 31 32 33 31 30 39 39 33 36 34 40 39 37 41 41 41 27 32 26 37 37 31 37 40 40 41 40 40 39 50 49 50 49 52 52 52 53
41 43 40 38 35 32 31 34 34 38 37 39 37 36 36 40 45 46 46 44 42 39 39 36 33 29 24 33 30 26 34 38 39 43 41 35 43 48 47 49 50 50 51 51 52
MSLP
1018.06 1017.92 1017.87 1017.81 1017.98 1017.79 1017.94 1017.99 1018.22 1018.34 1018.18 1018.19 1018.16 1017.85 1018.21 1018.17 1017.86 1017.07 1016.69 1016.75 1016.59 1016.46 1016.28 1015.36 1014.22 1013.65 1013.30 1012.76 1012.38 1012.00 1011.67 1010.67 1010.07 1009.90 1010.45 1011.06 1011.44 1011.70 1011.85 1012.15 1012.49 1013.10 1013.69 1014.13 1015.07
1018.03 1017.74 1017.79 1017.78 1017.96 1017.86 1017.92 1017.98 1018.06 1018.14 1018.25 1018.24 1018.28 1018.12 1018.24 1018.17 1017.83 1016.79 1016.58 1016.43 1016.50 1016.59 1016.30 1015.42 1014.67 1014.27 1013.64 1012.84 1012.45 1012.21 1011.71 1010.72 1010.09 1009.69 1010.21 1010.94 1011.23 1011.77 1012.18 1012.40 1013.03 1013.78 1014.56 1014.93 1015.64
1018.12 1017.92 1017.65 1017.73 1017.82 1017.81 1017.79 1017.70 1017.80 1017.79 1018.07 1018.09 1018.13 1018.09 1018.41 1018.36 1017.39 1016.10 1016.48 1016.45 1016.37 1016.51 1016.32 1015.84 1015.26 1014.79 1013.89 1013.14 1012.64 1012.18 1011.87 1011.33 1010.86 1010.94 1010.86 1010.95 1011.26 1011.42 1011.93 1012.36 1012.44 1013.28 1014.42 1015.11 1015.87
1018.44 1017.95 1017.71 1017.54 1017.75 1017.71 1017.67 1017.63 1017.71 1017.84 1017.84 1018.25 1017.93 1018.31 1018.56 1017.94 1017.48 1016.47 1016.64 1016.41 1016.19 1016.23 1016.01 1015.50 1015.22 1014.77 1014.13 1013.45 1012.81 1012.74 1012.07 1012.10 1011.97 1012.04 1011.71 1011.57 1011.41 1011.61 1011.87 1012.30 1012.12 1012.44 1013.35 1014.65 1015.43
1018.59 1017.97 1017.89 1017.65 1017.77 1017.67 1017.58 1017.73 1017.62 1017.76 1017.95 1018.14 1018.42 1018.56 1018.35 1017.91 1016.93 1016.33 1016.27 1016.10 1015.97 1015.96 1015.74 1015.46 1015.16 1014.74 1014.21 1013.52 1013.22 1013.26 1012.67 1012.69 1012.87 1012.85 1012.62 1012.60 1012.30 1012.32 1012.11 1012.18 1012.32 1012.64 1013.40 1014.18 1014.73
1018.43 1018.17 1018.16 1017.76 1017.55 1017.52 1017.48 1017.69 1017.65 1017.93 1017.97 1018.35 1018.52 1018.62 1018.60 1017.68 1016.69 1016.42 1016.31 1016.26 1016.04 1015.77 1015.53 1015.39 1015.06 1014.67 1014.60 1014.02 1013.81 1013.53 1013.22 1013.25 1013.26 1013.37 1013.32 1013.43 1013.07 1012.89 1012.42 1012.06 1012.43 1012.96 1013.37 1013.65 1013.94
1018.10 1018.38 1018.13 1017.76 1017.78 1017.65 1017.83 1017.59 1017.49 1017.95 1018.14 1018.30 1018.36 1018.65 1017.82 1016.78 1016.35 1016.57 1016.49 1016.31 1016.23 1015.94 1015.75 1015.63 1015.53 1015.30 1014.76 1014.54 1014.46 1014.37 1014.22 1013.92 1013.93 1013.93 1013.89 1013.93 1013.89 1013.11 1012.85 1012.53 1012.65 1013.06 1013.23 1013.29 1013.37
1018.29 1018.34 1018.30 1017.86 1018.01 1017.68 1017.50 1017.52 1017.86 1017.91 1018.25 1018.51 1018.50 1018.40 1017.41 1016.41 1016.37 1016.61 1016.30 1016.32 1016.05 1016.26 1016.16 1016.03 1015.94 1015.77 1015.48 1015.11 1015.02 1015.00 1014.86 1014.42 1013.58 1014.00 1014.51 1014.57 1013.97 1013.31 1012.78 1012.98 1013.02 1013.14 1013.19 1013.23 1013.37
1018.48 1018.39 1018.20 1017.97 1018.02 1018.06 1017.65 1017.78 1018.07 1017.76 1018.39 1018.81 1018.92 1018.53 1017.02 1016.68 1016.62 1016.37 1015.94 1015.92 1016.09 1016.40 1016.38 1016.24 1016.05 1015.98 1016.00 1015.68 1015.66 1015.44 1015.01 1014.71 1014.47 1014.28 1014.72 1015.06 1014.45 1013.49 1013.38 1013.32 1013.24 1013.34 1013.46 1013.22 1013.12
1017.74 1017.83 1018.06 1018.17 1018.17 1018.02 1017.96 1017.97 1018.09 1017.93 1018.87 1018.99 1019.00 1019.04 1017.24 1016.29 1016.26 1016.17 1016.19 1016.12 1016.25 1016.50 1016.54 1016.46 1016.23 1016.45 1016.11 1015.83 1015.61 1015.38 1015.45 1014.98 1014.97 1015.42 1015.53 1015.54 1015.17 1014.26 1014.19 1014.01 1013.94 1013.83 1013.69 1013.50 1013.17
1018.19 1018.03 1018.15 1018.17 1018.08 1018.02 1018.25 1018.11 1018.56 1018.83 1018.70 1018.30 1018.27 1017.78 1016.64 1016.72 1016.46 1016.34 1016.33 1016.39 1016.38 1016.69 1016.62 1016.60 1016.42 1016.10 1015.81 1015.56 1015.34 1015.44 1015.37 1015.40 1015.33 1016.28 1016.47 1016.22 1015.80 1014.95 1014.35 1014.14 1014.10 1014.08 1013.86 1013.74 1013.41
1018.14 1018.18 1017.99 1017.83 1018.07 1018.16 1018.32 1017.88 1017.58 1017.62 1017.76 1017.67 1018.31 1017.79 1017.11 1016.51 1016.43 1016.37 1016.46 1016.56 1016.48 1016.84 1016.65 1017.03 1016.36 1015.77 1015.53 1015.53 1015.58 1015.72 1015.93 1015.83 1016.00 1016.57 1017.23 1016.87 1016.31 1015.33 1014.51 1014.04 1014.03 1013.92 1013.68 1013.53 1013.52
1017.94 1017.80 1017.71 1017.88 1018.04 1018.17 1018.09 1017.60 1017.86 1017.58 1017.52 1017.76 1017.68 1017.18 1016.66 1016.65 1016.00 1016.36 1016.66 1016.35 1016.53 1016.81 1016.73 1016.64 1016.27 1015.85 1015.88 1015.86 1015.81 1015.98 1016.23 1016.18 1016.49 1016.99 1017.14 1017.27 1016.30 1014.67 1013.63 1013.65 1013.37 1013.19 1013.27 1013.53 1013.53
1017.92 1017.90 1017.98 1018.13 1018.67 1017.79 1017.65 1017.48 1017.94 1017.90 1017.91 1017.07 1016.92 1016.25 1016.29 1016.29 1016.31 1016.14 1016.31 1016.47 1016.60 1016.71 1016.91 1017.08 1016.62 1016.21 1016.34 1016.23 1016.29 1016.44 1016.30 1016.64 1017.02 1017.67 1017.98 1017.68 1016.55 1014.87 1013.83 1013.12 1012.94 1012.94 1013.13 1013.28 1013.45
1017.78 1017.81 1017.91 1018.07 1017.51 1017.34 1017.22 1017.23 1018.16 1018.34 1017.26 1015.08 1015.46 1014.67 1015.02 1016.05 1016.24 1016.38 1016.51 1016.62 1016.61 1016.64 1017.05 1017.14 1016.68 1016.84 1016.78 1016.58 1016.69 1017.05 1016.92 1017.31 1017.89 1018.45 1018.59 1017.84 1017.50 1014.41 1013.54 1013.15 1012.83 1012.90 1012.98 1013.28 1013.36
1017.54 1017.64 1017.82 1017.96 1017.97 1017.50 1017.13 1017.64 1018.62 1019.08 1016.74 1015.91 1015.49 1014.98 1015.56 1015.95 1016.33 1016.68 1016.98 1016.99 1016.77 1016.88 1017.32 1017.47 1017.22 1017.14 1016.93 1016.83 1016.94 1017.46 1017.97 1018.50 1018.96 1019.41 1019.14 1018.07 1017.22 1014.59 1013.45 1012.72 1012.83 1013.03 1013.33 1013.47 1013.65
1017.24 1017.40 1017.72 1017.47 1017.46 1017.51 1017.59 1018.15 1018.95 1017.47 1017.13 1016.59 1015.81 1015.62 1015.72 1016.05 1016.33 1016.24 1016.74 1016.93 1016.57 1017.31 1017.57 1017.74 1017.81 1017.40 1017.29 1017.41 1017.67 1018.10 1018.45 1019.45 1020.17 1020.27 1018.87 1017.38 1016.91 1014.50 1013.11 1012.70 1012.90 1013.33 1013.64 1013.63 1013.77
1016.94 1017.17 1017.36 1017.36 1017.42 1017.67 1018.12 1018.37 1017.82 1016.65 1016.76 1016.56 1016.01 1016.22 1016.06 1016.12 1016.20 1016.18 1016.51 1016.76 1016.54 1016.41 1016.88 1017.44 1018.09 1017.74 1017.55 1017.24 1017.27 1017.82 1017.94 1018.65 1019.67 1020.24 1019.12 1017.82 1016.13 1013.95 1012.98 1012.89 1013.00 1013.40 1013.84 1013.93 1013.95
1016.72 1017.07 1017.22 1017.26 1017.52 1018.03 1018.68 1017.74 1016.85 1016.78 1016.22 1016.37 1016.51 1016.66 1016.45 1016.12 1016.15 1016.32 1016.17 1015.82 1015.76 1015.87 1016.33 1016.51 1016.96 1016.94 1017.27 1017.27 1017.41 1017.96 1018.06 1018.47 1019.33 1020.20 1019.67 1017.63 1015.65 1013.89 1012.92 1013.19 1013.51 1013.87 1014.06 1014.10 1014.21
1016.70 1016.89 1016.58 1016.86 1017.57 1018.46 1019.14 1017.49 1017.13 1016.43 1016.53 1016.50 1016.13 1016.62 1016.49 1016.13 1016.26 1016.23 1015.90 1015.29 1015.37 1015.49 1015.76 1016.06 1016.93 1017.43 1017.64 1017.73 1017.58 1017.56 1017.93 1018.80 1019.45 1019.97 1019.10 1016.93 1015.40 1013.83 1013.46 1013.62 1013.96 1014.33 1014.37 1014.36 1014.44
1016.78 1016.91 1016.47 1016.58 1017.64 1018.36 1018.58 1018.07 1017.18 1016.38 1016.31 1016.69 1016.84 1016.99 1016.51 1016.28 1015.97 1015.86 1015.21 1014.85 1014.78 1015.05 1015.79 1016.32 1016.63 1018.26 1018.15 1017.79 1017.45 1017.94 1017.71 1017.94 1018.34 1018.78 1018.28 1017.22 1015.50 1014.11 1013.37 1013.63 1014.15 1014.50 1014.61 1014.74 1015.02
1016.36 1016.59 1015.96 1016.31 1017.55 1017.68 1017.77 1017.54 1017.50 1016.61 1017.00 1016.98 1017.12 1017.02 1016.93 1016.50 1016.05 1015.70 1014.86 1014.20 1014.18 1014.67 1015.45 1016.34 1016.80 1017.74 1017.76 1017.69 1017.59 1017.53 1017.54 1017.70 1017.94 1018.25 1018.05 1017.49 1015.84 1014.18 1013.99 1013.95 1014.11 1014.37 1014.54 1014.69 1014.68
1015.82 1016.31 1015.90 1015.86 1016.41 1016.41 1016.69 1017.26 1017.41 1016.99 1017.07 1017.49 1017.11 1016.82 1017.27 1017.11 1016.57 1015.68 1014.67 1014.06 1014.13 1014.44 1015.20 1016.01 1016.85 1017.72 1018.38 1018.48 1017.93 1017.49 1017.27 1017.21 1017.49 1017.79 1017.65 1017.52 1015.68 1014.34 1014.04 1014.08 1014.15 1014.24 1014.14 1014.11 1014.14
1015.58 1016.11 1016.25 1015.13 1014.84 1015.55 1016.64 1017.28 1017.43 1016.86 1016.69 1016.71 1016.44 1016.38 1016.35 1016.65 1017.02 1015.98 1014.80 1014.79 1014.41 1014.78 1015.25 1015.82 1016.65 1016.58 1016.48 1016.33 1016.40 1016.92 1016.69 1016.73 1017.15 1017.62 1016.76 1016.32 1015.57 1014.65 1014.31 1014.13 1014.02 1013.94 1013.78 1013.85 1014.14
1013.89 1014.09 1014.04 1014.66 1014.14 1014.29 1015.29 1015.76 1016.52 1016.91 1016.71 1016.30 1016.12 1015.93 1015.76 1015.96 1015.38 1015.32 1015.15 1015.21 1015.46 1015.07 1015.59 1016.22 1016.90 1017.14 1016.68 1016.47 1016.33 1016.04 1016.07 1016.23 1016.56 1015.82 1016.38 1015.25 1015.14 1014.55 1014.23 1014.18 1014.11 1014.02 1013.90 1013.95 1014.05
1012.21 1012.92 1013.30 1012.89 1013.50 1014.82 1015.05 1014.74 1014.52 1015.61 1016.04 1016.03 1015.38 1015.02 1015.39 1015.26 1014.84 1014.28 1014.37 1014.93 1015.28 1015.45 1015.66 1016.30 1016.98 1017.19 1017.27 1016.83 1016.59 1016.27 1015.93 1015.70 1015.23 1015.24 1015.61 1014.86 1014.28 1014.24 1013.88 1013.93 1013.85 1013.68 1013.64 1013.79 1013.85
1010.70 1011.23 1011.78 1011.99 1012.95 1013.86 1012.76 1012.22 1013.46 1014.90 1015.15 1014.88 1014.78 1015.42 1015.36 1014.44 1014.08 1014.27 1014.40 1015.05 1015.67 1015.45 1015.57 1016.30 1017.04 1017.76 1017.65 1017.02 1016.96 1016.84 1015.48 1015.03 1015.02 1014.56 1014.51 1014.33 1013.70 1013.82 1013.68 1013.56 1013.41 1013.45 1013.50 1013.48 1013.37
Wind_Speed
15 10 7 6 11 8 11 9 10 8 6 4 5 6 9 10 13 7 7 3 7 11 12 11 11 7 8 5 2 4 3 5 7 4 7 10 6 4 3 5 2 3 6 10 12
12 11 8 8 2 9 9 10 9 9 7 6 4 4 9 10 10 7 4 5 7 8 7 6 7 10 5 3 2 2 3 7 8 1 6 10 8 9 5 7 4 7 5 11 9
11 9 8 6 5 10 10 11 8 6 7 4 3 4 7 8 6 2 6 6 6 7 7 8 6 6 5 3 4 4 4 8 7 9 9 9 7 9 5 7 8 10 12 10 9
12 9 6 6 6 7 11 12 8 6 5 4 2 4 5 5 3 4 3 4 5 6 6 4 5 3 3 6 8 3 6 4 5 5 6 4 3 2 5 2 6 8 18 13 12
10 9 8 5 6 2 3 7 5 6 5 5 4 3 3 2 6 4 4 2 3 4 6 6 6 6 5 4 2 4 3 0 5 4 4 7 4 1 5 8 6 7 12 12 10
5 9 9 7 4 6 0 3 4 4 6 6 5 1 3 5 2 4 4 3 4 2 2 4 3 5 3 5 1 6 5 4 3 4 0 2 4 4 5 7 8 6 6 9 10
7 8 8 7 12 5 5 4 1 4 5 6 5 5 5 9 0 1 2 3 1 4 1 3 6 4 3 0 1 3 3 5 6 6 2 1 7 8 7 2 5 8 7 7 8
7 7 9 7 10 11 4 5 3 8 2 6 4 7 6 3 3 4 3 2 1 1 4 4 4 6 4 2 2 3 2 4 9 10 5 4 4 10 11 9 9 7 7 8 8
6 7 8 8 7 10 5 6 4 3 7 2 2 4 4 3 4 6 2 4 4 1 1 2 2 2 1 3 2 5 3 8 1 2 1 7 4 8 4 3 4 6 9 8 8
8 7 8 8 7 8 6 4 6 5 6 4 3 2 6 3 4 4 3 3 3 3 4 3 3 3 4 5 4 6 4 5 7 3 2 6 8 8 5 4 5 6 8 8 6
5 6 7 8 7 8 2 3 2 3 5 2 2 4 1 3 3 4 6 5 2 5 4 5 4 8 11 10 4 4 5 6 4 4 2 6 9 11 8 7 8 8 9 9 10
7 5 7 8 7 5 4 4 3 5 4 4 7 4 4 3 3 7 4 6 6 6 6 3 7 8 8 10 8 2 5 4 4 5 2 7 11 12 11 9 9 11 12 11 8
8 7 6 6 5 1 6 8 6 12 2 6 9 4 2 3 3 11 7 4 6 7 7 5 1 9 1 4 8 6 7 5 2 5 8 5 10 16 12 14 16 14 11 8 9
7 7 5 2 0 4 6 8 3 8 4 9 12 9 8 5 4 11 10 5 5 8 7 6 5 3 3 6 4 8 8 6 4 4 2 3 7 4 6 8 9 9 7 9 9
10 9 7 10 4 7 3 6 4 4 6 11 12 6 12 10 11 8 7 2 6 4 5 1 4 5 7 6 7 0 6 3 0 3 6 3 4 8 1 4 6 6 3 6 5
11 9 6 2 3 6 2 7 5 3 7 3 3 10 13 14 7 8 5 3 2 4 3 6 5 5 6 4 5 8 5 4 2 1 4 10 8 5 5 5 4 5 5 5 3
12 11 8 4 2 8 3 5 3 5 3 2 5 9 16 10 12 11 13 10 7 6 7 5 4 2 2 6 1 6 7 2 1 2 7 2 7 10 5 3 5 4 2 3 4
12 11 7 7 4 2 3 3 8 5 6 3 4 6 11 9 9 13 16 10 13 7 8 7 5 11 8 7 7 13 9 5 6 4 1 4 6 6 2 7 5 5 2 4 5
10 5 4 7 5 4 4 8 3 1 3 8 6 5 5 8 6 12 13 12 15 14 7 8 5 11 12 7 7 10 9 2 2 2 2 5 7 9 5 4 5 3 3 4 5
2 4 8 9 7 5 4 6 6 6 6 1 7 7 9 10 9 13 13 12 9 16 6 3 4 2 4 2 5 2 5 3 2 3 5 6 6 6 5 7 7 7 7 6 4
2 2 5 10 7 4 7 5 3 5 6 4 2 7 12 8 12 9 7 7 17 15 12 3 3 1 6 9 10 5 5 4 4 4 2 3 2 5 8 9 9 6 4 4 3
3 4 4 11 7 3 7 7 9 4 4 2 3 4 4 8 8 13 13 8 17 12 15 6 3 5 7 2 2 7 5 9 4 4 4 1 6 2 7 9 7 6 5 2 3
3 2 4 12 10 11 4 4 6 4 8 7 6 7 4 6 4 11 7 8 7 14 13 9 4 4 3 2 1 6 9 12 9 2 5 5 4 1 6 5 6 7 6 5 5
4 4 4 8 6 18 10 6 4 5 3 7 5 4 5 9 10 6 10 2 1 10 8 11 4 8 9 4 9 7 12 15 12 7 8 12 6 2 4 6 5 5 2 5 5
5 6 5 7 11 16 16 12 11 8 5 4 5 10 7 4 6 11 17 4 3 5 9 7 5 4 12 3 3 6 9 15 17 21 10 15 15 13 8 6 4 4 5 3 5
7 6 2 1 13 17 16 15 22 14 12 9 8 17 13 8 6 9 11 6 6 5 10 5 4 5 4 8 7 2 6 15 20 20 14 20 20 10 7 8 9 10 6 6 7
3 5 3 8 13 14 19 25 16 15 14 10 18 4 10 21 16 11 5 3 7 4 12 7 6 4 5 5 3 3 16 12 7 15 12 16 17 10 9 11 9 7 6 9 9
Wind_Direction
324 291 253 281 303 282 244 241 249 230 236 253 298 342 339 340 309 282 264 4 339 339 322 291 287 283 298 260 245 296 281 268 243 224 131 142 157 169 29 115 82 64 53 99 121
326 328 290 261 303 318 298 249 236 238 227 231 263 326 336 331 294 253 42 16 348 339 306 329 333 344 285 251 237 239 241 261 0 174 130 160 183 153 161 151 130 103 78 106 118
316 326 316 290 265 281 292 288 248 242 222 230 265 338 339 311 287 93 23 358 336 295 258 291 295 279 277 280 234 221 239 350 48 15 8 157 202 156 204 180 179 173 160 151 155
300 321 314 321 271 268 283 292 235 220 178 205 301 325 327 297 245 80 9 335 312 278 228 246 235 236 245 216 239 278 257 11 5 22 356 355 205 171 210 84 49 79 157 157 172
277 300 309 308 296 270 333 288 255 205 184 185 222 282 288 214 261 101 340 13 266 218 216 222 230 238 261 253 239 252 260 140 68 359 337 4 302 157 257 134 90 85 144 163 180
309 297 281 300 280 289 10 318 194 311 193 198 201 200 248 233 54 11 2 283 21 272 219 249 284 262 313 281 265 349 256 202 133 235 205 296 265 79 245 273 134 146 191 180 187
321 312 303 322 308 240 216 101 235 159 289 210 192 232 258 240 319 340 355 20 18 323 230 11 347 296 304 221 40 326 285 225 222 231 180 24 280 236 247 11 180 183 237 201 193
300 303 316 339 313 285 221 129 109 165 155 300 207 253 256 79 351 238 170 141 75 94 301 81 300 276 303 49 206 225 281 222 201 182 157 141 254 231 209 216 201 235 222 207 213
283 288 306 321 324 304 229 183 179 158 154 186 356 246 252 153 204 198 217 136 93 182 203 200 251 282 139 213 175 237 243 214 240 109 113 181 251 240 50 327 287 258 252 241 220
315 305 301 300 322 323 261 167 157 91 108 98 75 357 239 191 121 180 200 180 148 151 126 200 166 209 222 200 189 200 224 266 209 103 251 252 253 280 171 213 249 282 294 302 279
274 287 289 294 317 328 170 111 128 171 226 206 184 233 210 75 175 192 167 181 159 209 178 205 178 203 203 216 229 359 294 234 151 78 13 267 264 266 272 268 258 244 238 244 251
290 273 288 298 299 320 264 235 283 336 204 167 249 254 293 264 129 162 204 177 176 192 217 136 233 229 231 209 234 173 273 272 67 110 84 277 272 272 260 248 235 245 250 255 264
278 288 298 294 304 254 244 241 54 3 262 177 215 208 212 182 185 169 192 225 192 206 203 188 122 223 183 252 218 193 236 240 223 162 209 257 266 243 259 240 246 248 247 253 266
270 276 256 229 26 235 235 249 53 108 241 178 188 226 184 217 234 157 205 182 191 211 166 245 249 136 184 230 197 234 212 249 348 43 254 113 284 307 237 233 218 234 235 237 239
255 256 253 195 305 188 189 179 74 59 260 146 155 142 151 165 135 171 200 105 190 217 129 151 165 179 204 206 189 272 48 71 313 273 311 237 260 261 238 235 234 221 190 99 66
241 244 229 219 249 286 285 119 72 191 223 137 122 172 150 199 165 141 160 288 284 210 171 305 354 194 209 205 162 111 113 87 40 283 277 217 205 257 205 215 86 94 122 143 149
236 233 210 201 246 209 168 144 216 227 132 190 164 169 176 178 160 165 172 178 160 150 192 171 203 42 298 125 351 171 154 91 340 205 229 357 211 248 294 132 143 135 60 40 41
230 233 223 226 220 159 163 175 244 164 167 209 168 150 198 141 194 178 163 180 222 212 156 172 193 175 206 193 186 192 184 155 208 205 293 8 237 262 87 66 113 99 354 338 310
245 226 233 210 231 176 162 232 199 142 137 151 133 173 208 187 166 183 193 194 191 202 198 185 221 168 180 200 151 197 225 19 11 44 16 212 253 308 198 163 128 123 43 25 34
204 220 221 184 188 146 244 238 206 173 162 292 170 185 191 184 194 200 182 196 203 200 220 282 110 133 112 271 315 225 162 130 295 198 242 254 228 220 132 132 119 101 79 52 49
194 230 263 169 147 178 214 246 276 198 205 153 152 193 227 187 197 195 198 185 192 189 197 284 99 157 130 208 188 183 210 207 179 193 211 331 280 339 118 137 127 139 123 37 104
194 208 209 146 177 161 220 185 168 239 34 63 101 148 273 171 197 204 226 195 192 176 188 194 145 169 187 40 242 218 218 198 157 215 224 66 271 108 121 106 95 101 119 55 343
194 163 262 162 195 207 179 160 170 194 169 179 214 177 171 347 261 202 216 213 196 173 173 173 210 129 177 298 215 211 215 225 233 91 215 149 258 258 120 139 137 131 153 181 204
129 182 219 197 216 196 175 197 212 239 222 184 211 222 193 208 210 300 236 23 156 181 176 167 156 211 195 159 149 196 202 212 220 223 217 227 229 132 199 225 212 218 25 48 14
160 210 180 192 201 208 185 178 184 199 220 249 212 216 191 214 227 224 238 157 267 246 178 182 205 225 259 299 210 180 192 204 211 226 206 237 231 243 249 261 315 325 316 304 282
154 164 219 331 191 194 199 216 196 184 178 216 203 206 204 205 217 210 204 180 197 223 201 194 231 185 264 243 211 172 198 203 216 233 243 248 255 259 297 294 287 279 281 267 259
170 136 160 175 180 176 206 212 202 181 202 214 213 210 212 228 228 240 263 120 267 211 207 184 162 149 248 193 225 230 219 223 228 233 229 242 252 256 249 248 248 253 255 252 254